"TOA5","AWS1","CR1000","7964","CR1000.Std.14","CPU:AWS1_114.CR1","64363","TBL110"
"TIMESTAMP","RECORD","Wind_spd_WVc(1)","Wind_spd_WVc(2)","Air_Temp_Avg","Humidity_Avg","SW_upper_Wm2_Avg","Rain_Tot","Press_Avg","Issui_Tot","Depth_cm","SR50A_Raw","Quality","Ground_Temp_Avg(1)","Ground_Temp_Avg(2)","SW_lower_Wm2_Avg","Albedo_Avg","SWC_per(1)","SWC_per(2)","Period(1)","Period(2)"
"TS","RN","","","","","","","","","","","","","","","","","","",""
"","","WVc","WVc","Avg","Avg","Avg","Tot","Avg","Tot","Smp","Smp","Smp","Avg","Avg","Avg","Avg","Smp","Smp","Smp","Smp"
"2017-03-08 00:00:00",278269,0.028,99.2,-8.27,90.1,0,0,852.1161,0,101,2.203,190,0.816,1.502,0.2276834,0,52.27,60.09,33.85,35.7
"2017-03-08 00:10:00",278270,0.133,86.7,-8.35,91.2,0,0,852.1563,0,101.1,2.203,182,0.819,1.501,0.2276834,0,52.27,60.03,33.85,35.69
"2017-03-08 00:20:00",278271,0.034,150.9,-8.34,92.6,0,0,852.15,0,101.6,2.198,275,0.823,1.498,0.2276834,0,52.21,60.09,33.84,35.7
"2017-03-08 00:30:00",278272,0,0,-8.27,93.1,0,0,852.0972,0,101.2,2.201,193,0.816,1.503,0.1669678,0,52.27,60.09,33.85,35.7
"2017-03-08 00:40:00",278273,0,0,-8.32,92.8,0,0,852.0887,0,101,2.204,202,0.825,1.504,0.003794723,0,52.27,60.09,33.85,35.7
"2017-03-08 00:50:00",278274,0,0,-8.47,93.1,0,0,852.095,0,100.7,2.208,209,0.816,1.502,0,0,52.21,60.09,33.84,35.7
"2017-03-08 01:00:00",278275,0,0,-8.6,93.2,0,0,852.1225,0,99.1,2.225,205,0.813,1.504,0,0,52.27,60.09,33.85,35.7
"2017-03-08 01:10:00",278276,0,0,-8.79,93,0,0,852.095,0,99.7,2.22,221,0.815,1.504,0,0,52.27,60.09,33.85,35.7
"2017-03-08 01:20:00",278277,0.213,318.2,-9.06,93.9,0,0,852.0824,0,99.6,2.221,217,0.822,1.504,0,0,52.27,60.09,33.85,35.7
"2017-03-08 01:30:00",278278,0.2,147.6,-8.91,92.1,0,0,852.0824,0,99.9,2.217,214,0.828,1.504,0,0,52.27,60.09,33.85,35.7
"2017-03-08 01:40:00",278279,0,0,-8.89,90.8,0,0,852.0824,0,97.7,2.239,253,0.843,1.504,0.03794723,0,52.21,60.09,33.84,35.7
"2017-03-08 01:50:00",278280,0,0,-8.75,90.6,0,0,852.0824,0,101,2.206,206,0.84,1.504,0.2276834,0,52.21,60.09,33.84,35.7
"2017-03-08 02:00:00",278281,0,0,-8.74,90.9,0,0,852.0824,0,101.5,2.2,189,0.839,1.504,0.2276834,0,52.27,60.09,33.85,35.7
"2017-03-08 02:10:00",278282,0.003,149.6,-8.57,91.3,0,0,852.0698,0,101.3,2.202,184,0.848,1.504,0.2314781,0,52.21,60.09,33.84,35.7
"2017-03-08 02:20:00",278283,0.01,149.6,-8.56,91.5,0,0,851.9327,0,100.3,2.212,201,0.84,1.504,0.2276834,0,52.21,60.09,33.84,35.7
"2017-03-08 02:30:00",278284,0,149.8,-8.6,91.5,0,0,851.8293,0,101.1,2.204,198,0.836,1.504,0.08348391,0,52.27,60.09,33.85,35.7
"2017-03-08 02:40:00",278285,0.001,149.9,-8.54,91,0,0,851.8314,0,101.4,2.201,192,0.827,1.504,0.2087098,0,52.21,60.09,33.84,35.7
"2017-03-08 02:50:00",278286,0.003,349.7,-8.54,91.7,0,0,851.8293,0,101.4,2.2,182,0.825,1.504,0.2276834,0,52.27,60.09,33.85,35.7
"2017-03-08 03:00:00",278287,0.196,2.506,-8.56,94.9,0,0,851.8293,0,101.8,2.197,192,0.822,1.504,0.2276834,0,52.21,60.09,33.84,35.7
"2017-03-08 03:10:00",278288,0.062,2.136,-8.48,97.6,0,0,851.8272,0,101.8,2.196,200,0.82,1.504,0.2276834,0,52.21,60.09,33.84,35.7
"2017-03-08 03:20:00",278289,0.009,10.17,-8.42,98.7,0,0,851.8167,0,100.5,2.209,196,0.821,1.504,0.1631731,0,52.27,60.09,33.85,35.7
"2017-03-08 03:30:00",278290,0.002,97.1,-8.35,97.8,0,0,851.7745,0,101.9,2.194,196,0.826,1.504,0.2276834,0,52.27,60.09,33.85,35.7
"2017-03-08 03:40:00",278291,0,0,-8.3,97.2,0,0,851.7913,0.5,102.2,2.191,186,0.822,1.504,0.2276834,0,52.27,60.09,33.85,35.7
"2017-03-08 03:50:00",278292,0.048,97.1,-8.24,96.5,0,0,851.8209,0,102.1,2.192,189,0.826,1.504,0.1859414,0,52.21,60.09,33.84,35.7
"2017-03-08 04:00:00",278293,0.007,82.1,-8.36,96.9,0,0,851.8483,0,101.7,2.197,193,0.82,1.504,0.02276834,0,52.27,60.09,33.85,35.7
"2017-03-08 04:10:00",278294,0.004,70.72,-8.32,96.6,0,0,852.0149,0,102.1,2.193,196,0.822,1.504,0.01517889,0,52.27,60.09,33.85,35.7
"2017-03-08 04:20:00",278295,0.03,98.2,-8.41,95.6,0,0,852.0297,0,102.4,2.19,196,0.816,1.504,0,0,52.21,60.09,33.84,35.7
"2017-03-08 04:30:00",278296,0.127,112.1,-8.51,95.3,0,0,851.861,0,102.5,2.189,184,0.819,1.504,0,0,52.21,60.09,33.84,35.7
"2017-03-08 04:40:00",278297,0.072,80.3,-8.53,96.9,0,0,851.8441,0,102.6,2.188,192,0.815,1.504,0,0,52.27,60.09,33.85,35.7
"2017-03-08 04:50:00",278298,0.052,263.1,-8.58,96.5,0.06690619,0,851.8525,0,102.6,2.189,208,0.818,1.504,0,0,52.27,60.09,33.85,35.7
"2017-03-08 05:00:00",278299,0.025,26.54,-8.55,97,0,0,852.0698,0,103.2,2.182,200,0.82,1.504,0.1252259,0,52.27,60.09,33.85,35.7
"2017-03-08 05:10:00",278300,0.177,72.31,-8.54,97.1,0,0,851.9812,0,103.3,2.182,195,0.817,1.504,0.05692085,0,52.27,60.09,33.85,35.7
"2017-03-08 05:20:00",278301,0.078,113.5,-8.59,97.5,0,0,851.8483,0,103.4,2.18,198,0.819,1.504,0,0,52.21,60.09,33.84,35.7
"2017-03-08 05:30:00",278302,0.007,83.7,-8.64,96.3,0,0,851.8314,0,103.5,2.18,196,0.822,1.504,0,0,52.27,60.09,33.85,35.7
"2017-03-08 05:40:00",278303,0.008,83.9,-8.62,95.8,0,0,851.8905,0,103.5,2.179,190,0.833,1.504,0,0,52.27,60.09,33.85,35.7
"2017-03-08 05:50:00",278304,0.174,99.9,-8.58,94.8,0,0,852.0276,0.5,103.6,2.179,182,0.832,1.504,0.1138417,0,52.21,60.09,33.84,35.7
"2017-03-08 06:00:00",278305,0.041,54.38,-8.6,96.2,0,0,852.0803,0,103.2,2.182,190,0.825,1.504,0.178352,0,52.21,60.09,33.84,35.7
"2017-03-08 06:10:00",278306,0.017,94.5,-8.59,95.1,0.2203969,0,852.0824,0,103.4,2.181,190,0.817,1.504,0.6830502,2.828,52.27,60.09,33.85,35.7
"2017-03-08 06:20:00",278307,0.001,94.5,-8.53,93.9,0.6572549,0,852.0782,0,103.1,2.183,196,0.822,1.504,1.942898,3.131,52.27,60.09,33.85,35.7
"2017-03-08 06:30:00",278308,0.015,56.38,-8.51,93.2,0.6493836,0,852.0867,0,103.1,2.183,196,0.822,1.504,2.792916,4.755,52.27,60.09,33.85,35.7
"2017-03-08 06:40:00",278309,0.047,131,-8.51,93.5,1.834017,0,852.1794,0,103.1,2.183,197,0.816,1.503,5.34297,3.036,52.21,60.09,33.84,35.7
"2017-03-08 06:50:00",278310,0.036,18.81,-8.43,93.7,3.715261,0,852.3419,0,103,2.184,198,0.815,1.504,9.020057,2.437,52.27,60.09,33.85,35.7
"2017-03-08 07:00:00",278311,0.105,15.3,-8.37,92.9,5.702769,0,852.5549,0,103,2.184,193,0.814,1.504,14.78045,2.566,52.27,60.09,33.85,35.7
"2017-03-08 07:10:00",278312,0.129,29.02,-8.34,91.8,7.399038,0,852.5887,0,102.8,2.186,193,0.813,1.504,18.95844,2.57,52.27,60.09,33.85,35.7
"2017-03-08 07:20:00",278313,0.46,317,-8.29,90.2,10.35865,0,852.5887,0,102.7,2.187,197,0.815,1.504,25.36014,2.449,52.21,60.09,33.84,35.7
"2017-03-08 07:30:00",278314,0.278,331.3,-8.25,90.1,13.97552,0,852.6013,0,103.3,2.18,197,0.816,1.504,34.11077,2.44,52.21,60.09,33.84,35.7
"2017-03-08 07:40:00",278315,0.282,315.4,-8.22,90.4,10.15793,0,852.7004,0,103.1,2.182,192,0.815,1.5,24.21792,2.372,52.27,60.09,33.85,35.7
"2017-03-08 07:50:00",278316,0.108,112.5,-8,90.5,22.8032,0,852.8396,0,103.2,2.18,196,0.837,1.482,54.90585,2.401,52.27,60.09,33.85,35.7
"2017-03-08 08:00:00",278317,0.065,104.7,-7.94,89.1,21.40604,0,852.8417,0,103.4,2.178,182,0.885,1.461,49.90441,2.331,52.27,60.09,33.85,35.7
"2017-03-08 08:10:00",278318,0.121,112.3,-7.803,88.6,25.53849,0,852.9113,0,103.6,2.175,192,0.929,1.477,60.79147,2.377,52.27,60.09,33.85,35.7
"2017-03-08 08:20:00",278319,0.087,138.6,-7.467,88.4,35.76332,0,853.0442,0,103.9,2.171,179,0.97,1.497,84.71719,2.369,52.27,60.09,33.85,35.7
"2017-03-08 08:30:00",278320,0.308,75.39,-7.454,89,35.68068,0,853.0801,0,104,2.17,201,0.985,1.502,83.38905,2.338,52.27,60.09,33.85,35.7
"2017-03-08 08:40:00",278321,0.278,25.57,-7.311,90.7,33.64988,0,853.0948,0,104.1,2.168,193,0.977,1.505,81.24503,2.414,52.21,60.09,33.84,35.7
"2017-03-08 08:50:00",278322,0.099,17.59,-7.208,90.5,39.90757,0,853.0948,0,104.4,2.165,194,0.941,1.503,95.82436,2.396,52.27,60.09,33.85,35.7
"2017-03-08 09:00:00",278323,0.198,333.6,-7.04,89.9,60.23525,0,853.0948,0,104.4,2.163,194,0.917,1.474,140.9398,2.33,52.27,60.09,33.85,35.7
"2017-03-08 09:10:00",278324,0.391,26.89,-6.614,87.1,69.18827,0,853.0836,0,104.3,2.164,194,0.922,1.492,166.2833,2.405,52.27,60.09,33.85,35.7
"2017-03-08 09:20:00",278325,0.346,355.9,-6.812,86.7,46.25864,0,853.2208,0,104.3,2.164,173,0.892,1.475,108.5174,2.339,52.21,60.09,33.84,35.7
"2017-03-08 09:30:00",278326,0.112,298.3,-6.812,88.3,36.45876,0,853.2597,0,104.5,2.162,173,0.887,1.442,86.30092,2.365,52.27,60.09,33.85,35.7
"2017-03-08 09:40:00",278327,0.251,326.9,-6.771,86.4,63.88351,0,853.1868,0,104.4,2.163,181,0.892,1.434,146.8181,2.313,52.27,60.09,33.85,35.7
"2017-03-08 09:50:00",278328,0.432,327.7,-6.614,82.6,86.52432,0,853.0084,0,104.4,2.161,172,0.899,1.465,193.7361,2.233,52.32,60.03,33.87,35.69
"2017-03-08 10:00:00",278329,0.257,317.9,-6.039,81.1,86.67718,0,853.008,0,104.2,2.163,176,0.901,1.468,205.999,2.376,52.27,60.09,33.85,35.7
"2017-03-08 10:10:00",278330,0.369,340.4,-6.133,83.8,82.54468,0,853.0035,0,104.4,2.16,174,0.887,1.504,197.8358,2.392,52.27,60.09,33.85,35.7
"2017-03-08 10:20:00",278331,0.454,315.4,-5.989,83,97.62127,0,852.9747,0,104.3,2.16,177,0.835,1.484,227.8321,2.337,52.27,60.09,33.85,35.7
"2017-03-08 10:30:00",278332,0.498,24.12,-5.768,80.7,103.9065,0,852.9305,0,104.5,2.158,189,0.839,1.48,246.7319,2.374,52.27,60.09,33.85,35.7
"2017-03-08 10:40:00",278333,0.384,59.05,-5.582,77.75,90.56498,0,852.8517,0,104.5,2.157,192,0.864,1.465,217.55,2.4,52.27,60.09,33.85,35.7
"2017-03-08 10:50:00",278334,0.308,128.7,-5.559,75.85,74.49566,0,852.7024,0,104.7,2.157,192,0.839,1.461,171.6197,2.261,52.27,60.09,33.85,35.7
"2017-03-08 11:00:00",278335,0.273,86.5,-5.535,78.99,73.44859,0,852.6829,0,104.3,2.158,192,0.843,1.459,178.652,2.421,52.27,60.09,33.85,35.7
"2017-03-08 11:10:00",278336,0.538,306.3,-5.759,81.5,71.71781,0,852.6702,0,104.5,2.158,192,0.853,1.458,176.0917,2.445,52.27,60.09,33.85,35.7
"2017-03-08 11:20:00",278337,0.346,308.5,-5.298,79.7,120.3686,0,852.6407,0,104.4,2.155,193,0.868,1.458,286.8636,2.401,52.27,60.09,33.85,35.7
"2017-03-08 11:30:00",278338,0.544,7.11,-4.515,74.81,163.1159,0,852.418,0,104.3,2.155,192,0.864,1.449,385.9857,2.379,52.32,60.09,33.87,35.7
"2017-03-08 11:40:00",278339,0.6,345.4,-4.073,71.04,184.3105,0,852.3449,0,101.1,2.184,210,0.842,1.375,457.1865,2.499,52.27,60.09,33.85,35.7
"2017-03-08 11:50:00",278340,0.68,6.807,-4.135,71.55,116.6917,0,852.1049,0,103,2.168,209,0.845,1.343,277.7712,2.375,52.27,60.09,33.85,35.7
"2017-03-08 12:00:00",278341,0.721,321.2,-4.822,74.44,77.57026,0,852.0776,0,102.9,2.172,214,0.85,1.364,181.0861,2.317,52.27,60.09,33.85,35.7
"2017-03-08 12:10:00",278342,0.646,278.3,-5.518,75.51,84.46571,0,852.0771,0,103,2.172,220,0.832,1.362,202.869,2.399,52.27,60.09,33.85,35.7
"2017-03-08 12:20:00",278343,0.691,295.3,-5.285,73.04,131.8366,0,852.0759,0,102.4,2.175,211,0.8,1.362,341.8192,2.58,52.27,60.09,33.85,35.7
"2017-03-08 12:30:00",278344,0.602,296.9,-4.817,69.74,119.0304,0,852.044,0,102.5,2.174,208,0.825,1.357,298.518,2.462,52.27,60.09,33.85,35.7
"2017-03-08 12:40:00",278345,0.297,279.8,-4.669,71.64,81.24716,0,851.888,0,102.5,2.174,212,0.843,1.365,198.0639,2.436,52.27,60.09,33.85,35.7
"2017-03-08 12:50:00",278346,0.356,348.1,-4.832,71.73,57.34675,0,851.8227,0,102.5,2.175,213,0.848,1.364,133.737,2.322,52.27,60.09,33.85,35.7
"2017-03-08 13:00:00",278347,0.39,307,-4.942,74.37,58.41222,0,851.8227,0,101.6,2.185,218,0.846,1.355,139.6886,2.376,52.27,60.09,33.85,35.7
"2017-03-08 13:10:00",278348,0.317,286.4,-5.399,80.2,38.54176,0,851.8227,0.5,103.6,2.166,387,0.799,1.327,85.60472,2.215,52.21,60.09,33.84,35.7
"2017-03-08 13:20:00",278349,0.393,293.8,-5.545,86.4,45.33955,0,851.8227,0,103,2.172,199,0.766,1.35,106.3634,2.329,52.27,60.09,33.85,35.7
"2017-03-08 13:30:00",278350,0.262,345.5,-5.478,86.8,54.53563,0,851.8143,0,103.2,2.17,199,0.765,1.366,135.8068,2.489,52.27,60.09,33.85,35.7
"2017-03-08 13:40:00",278351,0.262,321.3,-5.325,88,76.51344,0,851.8185,0,103.2,2.167,213,0.765,1.357,205.2246,2.675,52.27,60.09,33.85,35.7
"2017-03-08 13:50:00",278352,0.405,46.9,-4.647,85.3,90.84422,0,851.8164,0,103.1,2.167,214,0.765,1.312,239.4028,2.637,52.27,60.09,33.85,35.7
"2017-03-08 14:00:00",278353,0.404,13.25,-4.395,77.91,104.1725,0,851.7869,0,103.2,2.164,209,0.767,1.301,273.4825,2.626,52.27,60.09,33.85,35.7
"2017-03-08 14:10:00",278354,0.398,2.92,-3.935,72.18,108.9848,0,851.7532,0,103.1,2.164,204,0.815,1.344,268.4786,2.458,52.32,60.09,33.87,35.7
"2017-03-08 14:20:00",278355,0.274,114,-4.123,70.37,68.68949,0,851.7722,0,103.3,2.164,203,0.82,1.368,170.5802,2.482,52.27,60.09,33.85,35.7
"2017-03-08 14:30:00",278356,0.235,75.2,-4.123,71.51,69.30283,0,851.8185,0,103.2,2.165,204,0.82,1.369,175.4097,2.53,52.27,60.09,33.85,35.7
"2017-03-08 14:40:00",278357,0.584,13.49,-4.597,73.17,59.78828,0,851.8227,0,103.6,2.163,214,0.837,1.367,148.779,2.488,52.27,60.09,33.85,35.7
"2017-03-08 14:50:00",278358,0.505,328.7,-4.707,74.24,59.5917,0,851.8227,0,103.3,2.165,204,0.847,1.341,150.9815,2.529,52.27,60.09,33.85,35.7
"2017-03-08 15:00:00",278359,0.426,310.6,-4.711,74.54,51.80708,0,851.9197,0,102.4,2.176,274,0.839,1.32,130.5489,2.516,52.27,60.09,33.85,35.7
"2017-03-08 15:10:00",278360,0.348,354.7,-5.089,77.32,43.27544,0,852.025,0,102.6,2.175,224,0.794,1.299,108.5886,2.509,52.27,60.09,33.85,35.7
"2017-03-08 15:20:00",278361,0.401,344.8,-5.001,80.1,48.21357,0,852.0566,0,102,2.18,244,0.767,1.331,121.5381,2.519,52.27,60.09,33.85,35.7
"2017-03-08 15:30:00",278362,0.345,13.46,-5.098,80.6,39.11971,0,852.0756,0,103.8,2.162,238,0.765,1.357,93.58823,2.389,52.27,60.09,33.85,35.7
"2017-03-08 15:40:00",278363,0.364,34.39,-5.139,76.31,44.94245,0,852.0714,0,103.8,2.163,234,0.765,1.367,109.813,2.443,52.27,60.09,33.85,35.7
"2017-03-08 15:50:00",278364,0.222,146.2,-4.767,74.77,46.23596,0,852.0798,0,103.5,2.163,230,0.765,1.368,118.7442,2.568,52.27,60.09,33.85,35.7
"2017-03-08 16:00:00",278365,0.295,69.04,-4.764,74.68,45.30416,0,852.1135,0,103.7,2.162,234,0.774,1.369,115.1391,2.541,52.27,60.09,33.85,35.7
"2017-03-08 16:10:00",278366,0.276,14.48,-4.689,74,41.59664,0,852.2504,0,103.5,2.165,219,0.774,1.366,106.659,2.562,52.27,60.09,33.85,35.7
"2017-03-08 16:20:00",278367,0.186,285.9,-4.864,75.04,36.32432,0,852.1788,0,103.5,2.164,223,0.785,1.368,90.82849,2.484,52.27,60.09,33.85,35.7
"2017-03-08 16:30:00",278368,0.14,70.89,-4.893,76.41,22.61866,0,852.1809,0,103.4,2.166,212,0.795,1.369,55.115,2.439,52.27,60.09,33.85,35.7
"2017-03-08 16:40:00",278369,0.165,352.3,-5.126,78.61,15.78549,0,852.2757,0,103.4,2.166,205,0.779,1.369,37.87427,2.4,52.27,60.09,33.85,35.7
"2017-03-08 16:50:00",278370,0.202,84.5,-5.038,82.1,11.51967,0,852.3284,0,104,2.161,213,0.768,1.369,27.28646,2.368,52.32,60.09,33.87,35.7
"2017-03-08 17:00:00",278371,0.039,207.6,-5.159,84.4,13.32044,0,852.4633,0,103.9,2.161,208,0.767,1.375,33.35959,2.493,52.27,60.09,33.85,35.7
"2017-03-08 17:10:00",278372,0.095,21.94,-5.035,83.5,14.9407,0,852.5799,0,103.8,2.162,192,0.773,1.403,38.94461,2.606,52.27,60.09,33.85,35.7
"2017-03-08 17:20:00",278373,0.199,297.5,-5.281,87.4,10.05027,0,852.5952,0,103.9,2.162,196,0.791,1.438,24.60126,2.445,52.27,60.09,33.85,35.7
"2017-03-08 17:30:00",278374,0.121,303.7,-5.339,90.3,5.021647,0,852.6282,0.5,104.3,2.159,189,0.814,1.46,10.79834,2.109,52.27,60.03,33.85,35.69
"2017-03-08 17:40:00",278375,0.049,305.5,-5.527,93.5,3.067519,0,852.778,0,104.4,2.158,175,0.829,1.459,5.778837,1.882,52.27,60.09,33.85,35.7
"2017-03-08 17:50:00",278376,0.077,334.9,-5.488,96.5,1.537755,0,852.9121,0,104.1,2.161,197,0.779,1.442,2.373813,1.404,52.27,60.09,33.85,35.7
"2017-03-08 18:00:00",278377,0.123,95.5,-5.649,98.4,0.7118624,0,852.9198,0,104.4,2.159,189,0.782,1.448,0.1668522,0.216,52.21,60.09,33.84,35.7
"2017-03-08 18:10:00",278378,0.08,355.2,-5.839,99.4,0.4286928,0,852.9207,0,104.2,2.162,187,0.802,1.458,0,0,52.27,60.09,33.85,35.7
"2017-03-08 18:20:00",278379,0.051,86.1,-5.95,100,0.2359781,0,852.923,0,103.2,2.172,203,0.807,1.456,0,0,52.21,60.09,33.84,35.7
"2017-03-08 18:30:00",278380,0.061,85.3,-5.982,100,0.3107046,0,852.9356,0,103.5,2.169,208,0.819,1.454,0,0,52.27,60.09,33.85,35.7
"2017-03-08 18:40:00",278381,0.108,42.69,-6.105,98.4,0.2831737,0,853.1042,0,103.4,2.17,205,0.847,1.425,0,0,52.27,60.09,33.85,35.7
"2017-03-08 18:50:00",278382,0.012,95.2,-6.175,97.1,0,0,853.1738,0,103.3,2.172,206,0.851,1.389,0,0,52.27,60.09,33.85,35.7
"2017-03-08 19:00:00",278383,0.039,42.82,-6.252,97.1,0,0,853.218,0,103.4,2.171,209,0.851,1.386,0,0,52.27,60.09,33.85,35.7
"2017-03-08 19:10:00",278384,0.182,89.5,-6.221,95.6,0,0,853.3151,0,103.1,2.174,192,0.841,1.379,0.0379213,0,52.27,60.09,33.85,35.7
"2017-03-08 19:20:00",278385,0.028,62.61,-6.239,95.3,0,0,853.4141,0,103,2.176,196,0.82,1.374,0,0,52.21,60.09,33.84,35.7
"2017-03-08 19:30:00",278386,0,0,-6.394,95.3,0.02753078,0,853.4268,0,103.6,2.17,197,0.79,1.379,0,0,52.27,60.09,33.85,35.7
"2017-03-08 19:40:00",278387,0,0,-6.585,94.9,0,0,853.4268,0.5,104.2,2.165,198,0.807,1.401,0,0,52.27,60.09,33.85,35.7
"2017-03-08 19:50:00",278388,0,0,-6.592,96.8,0,0,853.6101,0,104.3,2.163,203,0.827,1.427,0.128943,0,52.32,60.09,33.87,35.7
"2017-03-08 20:00:00",278389,0.035,96.5,-6.487,97,0,0,853.607,0,104.3,2.163,197,0.84,1.444,0.2237634,0,52.27,60.09,33.85,35.7
"2017-03-08 20:10:00",278390,0.017,96.6,-6.598,96.2,0.02753597,0,853.6566,0,104.3,2.164,191,0.855,1.449,0,0,52.27,60.09,33.85,35.7
"2017-03-08 20:20:00",278391,0.084,96.3,-6.621,95.3,0,0,853.7203,0,104.3,2.164,195,0.862,1.423,0,0,52.27,60.09,33.85,35.7
"2017-03-08 20:30:00",278392,0.058,97.6,-6.641,95.2,0,0,853.7449,0,104.2,2.164,191,0.874,1.443,0.06448365,0,52.27,60.09,33.85,35.7
"2017-03-08 20:40:00",278393,0.114,110.4,-6.625,97,0,0,853.7741,0,104.1,2.165,190,0.885,1.444,0.003793204,0,52.27,60.09,33.85,35.7
"2017-03-08 20:50:00",278394,0.044,87.7,-6.598,98.1,0,0,853.9005,0,104.2,2.164,180,0.859,1.445,0.04931412,0,52.27,60.09,33.85,35.7
"2017-03-08 21:00:00",278395,0.102,104.9,-6.623,97.9,0,0,854.0195,0,104.2,2.164,180,0.839,1.451,0.1175959,0,52.27,60.09,33.85,35.7
"2017-03-08 21:10:00",278396,0.025,107.2,-6.605,97.7,0,0,854.0177,0,104.3,2.164,188,0.841,1.456,0.07966185,0,52.27,60.09,33.85,35.7
"2017-03-08 21:20:00",278397,0.143,112.2,-6.764,98.1,0.1022922,0,854.0198,0,104.4,2.163,196,0.851,1.455,0,0,52.27,60.09,33.85,35.7
"2017-03-08 21:30:00",278398,0.265,116.7,-6.813,98.3,0.1455696,0,854.0198,0,104.4,2.163,197,0.847,1.447,0,0,52.21,60.09,33.84,35.7
"2017-03-08 21:40:00",278399,0.139,116,-6.796,97.4,0.1022922,0,854.0198,0,104.4,2.163,192,0.835,1.44,0,0,52.27,60.09,33.85,35.7
"2017-03-08 21:50:00",278400,0.166,110.1,-6.779,96.6,0,0,854.0198,0,104.4,2.163,192,0.837,1.439,0,0,52.27,60.09,33.85,35.7
"2017-03-08 22:00:00",278401,0.022,110.3,-6.709,96.2,0,0,854.0198,0,104.4,2.163,187,0.848,1.413,0.03414084,0,52.27,60.09,33.85,35.7
"2017-03-08 22:10:00",278402,0.027,61.07,-6.749,96.1,0,0,854.0198,0,104.4,2.163,186,0.851,1.405,0.06828168,0,52.27,60.09,33.85,35.7
"2017-03-08 22:20:00",278403,0.005,61.24,-6.692,96.1,0,0,854.0198,0,104.4,2.163,190,0.875,1.397,0.1403568,0,52.27,60.09,33.85,35.7
"2017-03-08 22:30:00",278404,0,0,-6.609,95.6,0,0,854.0178,0,104.2,2.164,191,0.856,1.403,0.2276056,0,52.27,60.09,33.85,35.7
"2017-03-08 22:40:00",278405,0.066,14.13,-6.637,94.7,0,0,853.9756,0,104.3,2.164,190,0.856,1.409,0.2276056,0,52.27,60.09,33.85,35.7
"2017-03-08 22:50:00",278406,0.022,31.24,-6.645,91,0,0,853.8216,0,104.3,2.163,186,0.863,1.387,0.2276056,0,52.27,60.09,33.85,35.7
"2017-03-08 23:00:00",278407,0.007,43.52,-6.617,92.4,0,0,853.7668,0,104.2,2.164,186,0.87,1.386,0.2124319,0,52.27,60.09,33.85,35.7
"2017-03-08 23:10:00",278408,0,0,-6.604,93.5,0,0,853.7668,0,104.2,2.164,181,0.861,1.39,0.2276056,0,52.21,60.09,33.84,35.7
"2017-03-08 23:20:00",278409,0,0,-6.591,94.3,0,0,853.7647,0,104.2,2.164,177,0.853,1.403,0.2276056,0,52.27,60.09,33.85,35.7
"2017-03-08 23:30:00",278410,0.017,41.63,-6.576,94.9,0,0,853.7225,0,104.2,2.164,192,0.872,1.387,0.1782911,0,52.21,60.09,33.84,35.7
"2017-03-08 23:40:00",278411,0,0,-6.652,95.3,0,0,853.5328,0,104.2,2.165,191,0.864,1.39,0.1707042,0,52.27,60.09,33.85,35.7
"2017-03-08 23:50:00",278412,0,0,-6.632,95.8,0,0,853.5939,0,103.6,2.171,193,0.862,1.379,0.1593239,0,52.27,60.09,33.85,35.7
